Helicity
98 34 25 57 68 78 66 50 38 35 24 -43 -49 -0 49 43 40 60 61 90 102 122 128 95 94 70 85 109 127 156 149 90 22 -26 -5 101 110 131 98 61 31 72 138
66 18 50 68 66 68 40 10 5 -4 -11 -8 -34 -53 -67 -22 28 47 73 82 101 133 172 130 115 88 81 80 92 120 115 149 105 109 164 180 119 233 207 148 136 78 -43
57 10 56 70 65 38 36 19 31 26 -16 -7 3 19 6 -35 -53 -18 24 38 51 107 165 246 139 167 137 124 126 132 160 143 155 158 170 173 133 185 211 209 180 236 178
75 13 53 57 51 30 33 15 23 25 17 40 66 53 60 -17 -0 -10 -1 6 11 24 66 139 187 155 183 146 155 197 203 217 241 228 182 198 164 190 218 257 229 223 285
54 18 40 52 39 32 14 18 14 17 13 16 33 48 77 19 -9 1 19 50 57 52 58 44 55 65 126 174 179 227 243 259 277 271 248 202 215 235 287 250 212 134 172
35 1 49 39 39 31 10 12 22 13 4 21 36 57 55 -1 9 30 8 37 53 65 63 82 67 59 51 46 74 122 175 193 229 214 231 256 270 251 248 221 225 178 143
39 41 44 42 52 36 10 -0 -0 -1 -9 -5 29 43 47 15 26 12 24 14 42 59 73 83 75 81 90 61 58 83 103 103 101 79 119 188 181 177 142 155 124 23 67
47 41 32 40 43 31 25 13 -3 -28 -32 -33 -24 9 21 22 36 20 2 -20 23 45 34 37 61 64 81 93 68 78 87 95 80 61 56 76 83 105 84 76 75 -2 11
50 42 33 29 28 28 36 18 -7 -15 -38 -50 -59 -25 -2 12 54 49 -1 -14 -10 16 18 1 3 29 60 66 53 59 81 94 73 87 102 118 142 154 157 88 127 75 33
91 51 38 38 40 28 12 -1 -17 -13 -29 -45 -56 -17 51 28 58 55 20 -5 7 7 24 9 76 41 79 72 20 29 60 81 92 124 129 161 151 162 191 148 71 59 25
154 132 102 71 67 67 58 34 16 12 -1 -3 3 11 37 46 40 53 43 -25 -20 -32 -27 -15 -5 64 73 85 70 16 12 6 45 56 77 97 117 127 123 133 157 35 50
148 143 125 98 81 71 78 84 95 60 48 33 27 30 38 48 71 66 59 50 28 -4 -25 -43 1 58 60 73 33 57 52 15 18 38 59 111 118 111 114 86 120 107 81
137 133 125 110 125 136 137 138 157 142 103 83 54 46 45 53 66 93 81 72 44 13 -7 46 65 72 65 26 95 83 43 14 -0 12 24 25 27 29 49 71 109 139 143
136 126 124 155 178 150 142 138 146 131 109 78 72 55 44 59 59 43 54 69 70 39 42 57 60 29 14 -14 -15 14 1 -4 -28 -26 -1 27 39 60 54 51 73 130 110
131 120 130 154 166 167 131 127 130 104 82 74 52 34 39 55 50 45 35 30 11 29 44 58 56 24 24 32 33 39 37 31 23 6 10 46 58 57 45 41 57 77 84
153 140 146 142 145 166 153 126 129 113 108 92 68 61 38 55 64 52 55 86 101 95 57 56 51 31 10 17 18 25 29 36 36 30 23 37 63 82 77 64 56 57 73
158 146 133 140 144 122 114 100 92 93 92 83 68 60 54 66 89 98 103 114 116 102 57 47 24 21 7 13 11 15 13 28 31 25 28 28 42 39 43 46 53 63 95
144 140 152 157 135 119 115 101 88 70 57 49 61 51 55 51 91 110 113 106 82 94 56 49 41 38 34 30 29 36 44 53 61 53 58 45 50 42 53 46 32 26 38
203 199 211 221 231 194 158 102 64 62 49 44 38 72 67 59 99 106 119 87 62 70 62 58 53 55 53 52 44 55 59 66 65 46 55 57 57 57 63 45 35 35 28
322 288 258 242 211 181 152 138 125 102 112 97 77 48 79 96 73 71 72 71 81 72 58 64 67 61 55 54 49 65 68 77 81 83 66 58 62 67 74 74 50 30 28
309 273 244 202 164 127 142 117 122 141 133 104 61 48 84 98 84 79 75 79 85 74 66 66 67 64 59 55 67 76 94 100 89 76 70 78 87 90 105 101 86 40 39
291 247 169 181 183 161 162 160 143 125 118 89 75 54 89 103 103 88 94 99 92 84 70 67 71 68 53 54 59 81 98 82 79 80 81 89 105 105 106 118 103 55 46
239 211 187 165 194 142 161 131 134 130 137 105 53 76 96 95 102 103 110 105 99 98 81 80 81 71 64 60 61 84 86 88 71 75 78 90 109 119 123 122 109 71 57
164 133 178 198 164 160 139 152 160 155 136 116 127 119 106 100 115 131 118 115 113 99 94 90 80 76 69 61 78 87 93 77 77 75 76 80 99 137 146 133 100 74 54
167 164 192 166 135 145 128 132 135 123 120 140 142 136 136 143 163 139 131 131 107 97 101 88 78 83 85 90 107 89 74 91 91 78 77 83 90 122 143 123 105 77 69
195 184 183 168 174 176 164 156 129 122 129 137 146 148 156 180 173 154 151 139 112 115 107 92 91 97 86 86 85 83 95 94 79 82 96 97 106 133 147 117 97 89 73
Wind_Speed
47 49 52 55 57 59 58 63 68 71 74 71 69 67 63 63 62 58 56 52 51 52 52 48 44 43 45 50 52 53 53 59 77 69 67 57 58 63 65 60 53 50 52
42 44 47 50 53 56 60 63 65 67 67 66 64 67 70 67 63 61 56 53 53 52 49 48 47 41 38 39 42 47 48 48 53 55 48 53 49 54 56 53 51 45 44
39 39 42 46 49 53 57 59 64 66 56 46 53 56 64 67 63 59 56 52 55 53 50 45 47 44 40 36 34 36 40 42 41 41 47 50 49 52 52 51 48 50 42
34 34 38 42 45 49 53 53 60 63 66 55 23 22 20 61 65 63 59 56 55 57 50 43 45 49 46 39 36 34 33 31 33 35 40 45 47 51 48 52 53 45 44
30 30 34 37 40 43 46 47 52 59 62 65 65 53 24 73 69 48 52 55 56 56 57 56 51 50 55 56 50 42 37 34 32 31 31 36 40 46 50 53 54 54 47
25 26 30 32 36 36 40 47 52 54 57 60 61 62 58 65 66 65 50 41 53 58 55 51 53 54 49 58 58 58 54 45 42 38 36 36 40 43 46 47 48 49 61
22 23 26 28 31 33 35 39 46 52 55 57 61 62 60 62 61 58 53 34 32 31 41 37 45 46 48 49 51 53 60 61 58 48 41 42 43 45 45 44 41 36 42
17 20 22 24 27 29 31 35 40 45 51 55 58 61 61 63 59 55 49 37 37 35 22 45 38 40 41 38 46 52 57 56 56 54 52 50 49 50 46 45 42 35 40
13 15 18 20 23 25 28 31 34 38 43 50 53 57 57 57 60 57 54 52 49 50 45 55 56 55 55 51 50 51 50 50 47 55 57 54 53 56 56 49 49 46 46
13 12 15 16 19 21 25 28 31 33 37 42 48 53 57 54 58 57 57 54 54 52 53 53 60 62 61 61 58 56 56 54 52 54 54 55 56 57 59 58 54 53 50
14 16 16 17 18 22 25 27 29 31 32 38 43 49 52 55 56 56 55 53 55 55 56 58 59 61 63 64 62 60 58 56 57 57 57 59 61 62 62 62 61 57 57
12 13 16 18 19 21 24 27 30 29 30 34 39 44 49 52 55 56 56 55 55 54 56 56 58 60 60 63 63 62 61 60 59 60 61 63 64 65 66 65 64 61 59
9 11 13 16 20 21 23 26 28 30 31 35 38 42 47 50 52 54 55 57 56 54 54 55 56 59 59 59 63 63 62 62 62 64 66 66 66 66 66 66 67 65 62
10 11 11 16 18 21 23 25 27 29 31 33 36 40 44 49 51 52 54 56 55 53 54 55 56 56 57 57 59 62 63 64 64 65 66 67 67 69 71 70 72 73 68
9 11 13 16 17 19 22 23 26 30 29 31 35 38 43 48 51 51 51 54 53 53 54 55 57 58 60 62 62 64 65 66 66 66 67 70 71 71 71 72 73 74 74
10 12 15 17 16 17 18 20 25 27 29 31 33 37 41 45 48 49 47 52 53 53 54 58 60 61 61 63 64 66 66 68 68 68 69 70 73 74 74 74 74 75 77
14 14 16 17 18 16 19 21 23 25 28 31 33 36 40 43 47 49 49 50 54 54 56 58 59 61 61 63 64 66 67 68 68 69 70 71 74 74 75 76 77 78 79
15 17 19 22 22 21 22 23 22 24 27 29 32 36 40 42 46 50 51 51 54 56 56 58 60 61 62 63 65 66 68 69 70 70 72 73 76 76 77 78 79 81 83
18 17 21 23 24 24 23 22 24 26 27 28 31 43 42 43 44 49 51 52 53 55 56 57 59 60 61 63 66 67 68 70 72 71 74 76 78 76 77 77 79 81 83
11 13 15 21 26 26 25 27 28 29 27 27 35 43 42 41 45 47 50 51 52 53 55 56 58 60 60 64 66 68 68 71 71 72 76 78 78 75 77 78 80 81 81
10 9 13 18 24 27 25 25 27 28 29 31 36 40 39 44 44 45 48 50 51 53 55 56 59 59 61 64 66 68 70 72 70 74 77 76 75 76 73 75 77 77 80
13 13 16 15 19 24 24 22 25 27 30 32 34 38 40 41 43 44 46 47 49 52 53 56 59 57 61 64 67 69 70 68 73 75 75 74 74 73 72 73 75 75 79
8 11 15 17 18 15 22 26 26 29 31 32 34 36 38 42 42 43 44 46 49 52 54 57 57 58 60 64 67 66 66 69 71 72 72 74 74 71 69 70 73 74 78
3 3 10 14 19 15 19 25 27 28 30 34 35 36 39 40 40 40 42 45 49 53 55 56 57 60 61 66 65 62 64 67 68 69 69 70 70 69 66 68 67 69 74
4 4 8 12 16 17 17 22 25 30 32 34 35 36 37 38 38 39 41 45 50 54 56 55 59 59 62 65 59 63 67 67 68 69 64 66 65 66 68 62 64 66 69
6 6 7 8 12 15 17 21 25 27 29 31 32 34 36 37 38 40 42 48 52 54 54 57 59 58 62 61 60 66 66 67 69 67 62 63 63 63 66 66 63 61 63
Wind_Direction
360 1 4 4 10 17 23 21 13 13 15 3 0 359 354 354 354 353 355 351 352 351 352 344 327 312 294 286 283 282 287 276 270 279 278 284 285 283 284 288 295 296 302
360 4 7 10 19 23 15 9 4 6 6 4 2 7 9 7 5 5 0 358 359 356 350 348 346 335 321 305 293 287 286 288 279 282 285 284 290 292 288 287 290 296 302
355 7 9 12 18 17 12 25 32 34 7 351 358 0 6 10 9 6 5 3 6 4 360 355 357 352 346 333 320 311 297 292 301 296 286 290 288 300 293 288 290 289 298
355 8 7 12 14 13 17 9 22 34 34 53 75 357 6 10 13 13 12 12 11 11 6 4 4 8 4 355 349 338 331 325 317 307 300 294 293 297 298 290 283 291 290
354 8 6 12 17 14 7 1 10 17 21 32 22 4 16 46 21 6 10 13 13 13 13 12 10 11 16 19 16 10 4 359 348 336 322 314 310 301 299 297 288 279 288
0 9 9 14 18 359 7 17 19 18 17 17 19 17 9 20 22 17 10 9 13 16 14 11 12 13 12 21 23 26 24 13 10 3 350 336 325 315 313 308 305 289 278
6 11 11 17 19 7 8 15 18 18 21 18 18 21 14 18 16 15 11 7 10 11 12 10 11 10 11 13 17 21 25 26 24 14 2 354 345 336 329 324 322 319 312
13 15 15 23 19 10 3 12 24 24 22 23 20 21 20 20 16 12 7 0 4 5 13 10 9 8 8 7 11 16 19 17 17 16 15 8 1 354 348 342 331 326 329
16 12 14 18 16 6 2 359 9 20 23 21 23 19 15 13 16 14 9 7 4 5 1 10 11 11 10 8 10 12 11 8 5 13 15 10 4 3 359 352 347 337 326
7 7 3 7 7 2 353 351 354 14 24 26 22 20 17 7 12 13 13 8 5 2 3 4 10 14 12 12 11 10 9 1 358 359 1 360 358 357 356 358 350 345 337
3 352 351 351 342 343 338 336 341 359 16 17 14 14 11 9 7 9 8 5 4 4 5 5 8 9 12 11 11 9 6 3 0 359 358 358 357 356 354 352 353 352 342
2 350 341 343 340 335 328 331 335 348 1 6 6 6 6 4 4 4 5 3 1 359 2 5 6 7 8 11 10 8 7 6 2 358 355 352 350 349 349 350 348 349 350
357 355 343 341 334 337 336 333 335 340 345 350 356 357 356 356 358 360 1 360 359 1 5 4 7 7 6 5 5 4 1 1 360 358 355 352 350 348 348 349 347 344 343
334 336 344 332 335 339 333 331 332 335 338 342 347 351 352 352 353 354 354 354 0 4 3 1 0 0 358 358 357 358 358 358 358 356 353 350 348 346 345 344 342 339 337
324 320 322 325 329 334 341 336 333 332 337 341 344 348 347 347 350 351 353 354 359 360 359 357 355 354 354 353 353 353 353 352 352 352 351 348 346 345 344 343 342 338 336
307 308 308 313 318 325 334 338 341 343 344 347 347 346 344 348 350 350 356 356 356 356 354 352 351 351 352 350 349 348 348 348 347 347 347 346 343 342 340 340 340 338 334
296 296 298 302 307 308 314 320 324 333 341 344 348 349 349 350 351 353 355 355 352 349 348 348 349 350 351 350 348 347 346 346 346 345 343 343 341 340 338 338 337 336 334
295 293 293 296 296 297 303 309 317 321 326 334 342 346 346 349 353 353 350 348 343 345 345 346 347 348 348 348 347 346 345 344 344 343 342 341 339 338 337 336 336 334 332
291 291 297 297 299 302 307 311 312 316 319 326 331 333 337 342 348 347 346 345 344 344 346 346 347 347 348 347 346 344 343 342 342 342 341 339 338 337 336 336 336 335 332
306 301 304 301 298 302 307 307 311 314 321 326 327 328 331 338 338 342 345 346 348 347 347 347 347 347 347 346 344 343 343 342 342 342 340 339 337 336 334 334 334 334 333
306 314 308 306 298 300 307 309 311 316 320 324 326 331 332 330 335 339 342 345 346 347 347 347 345 346 346 345 344 343 342 341 342 341 339 339 338 335 336 334 334 335 334
297 301 308 305 309 302 307 316 315 318 321 323 326 329 330 333 335 339 343 345 346 347 347 346 345 347 346 345 344 342 341 342 341 340 339 339 338 336 335 335 334 335 335
304 294 305 305 315 328 312 312 317 317 320 323 324 327 330 331 335 339 342 344 345 345 346 345 345 345 346 346 344 343 343 342 341 341 340 338 338 337 336 335 335 336 337
57 113 313 313 309 320 321 314 318 320 323 324 326 328 330 334 338 341 343 344 344 344 344 344 345 344 345 344 345 346 344 343 343 342 340 339 338 338 337 336 336 338 338
23 7 332 323 321 323 323 322 320 321 322 323 326 330 334 338 340 342 344 344 344 343 342 344 344 345 345 345 347 346 344 344 343 342 342 340 339 339 339 338 338 338 339
55 28 4 354 343 334 327 324 323 325 327 331 333 335 337 339 340 341 342 341 341 342 344 344 344 345 345 346 346 345 345 345 343 342 342 341 340 339 341 340 338 340 340